Weather in Teplyy Stan

Russia / Samara Oblast     53°58′42″N   50°10′17″E
temp.,
°C
wind,
m/s
gust,
m/s
humid.,
%
clouds,
%
prec.,
mm/h
press.,
hPa
HPBL,
m
20 june, sun
sun2001:00+16w410910 0.0 1022171
04:00+15w48940 0.0 1022142
07:00+19wnw46811 0.0 1021211
10:00+25wnw45655 0.0 1021623
13:00+28wnw45535 0.0 10211339
16:00+29nw45510 0.0 10211695
19:00+26nw35700 0.1 1020161
22:00+21n11840 0.1 102111
21 june, mon
mon2101:00+20sw00863 0.0 102211
04:00+19wsw00890 0.0 102211
07:00+22sse22800 0.0 1023178
10:00+26sw34691 0.6 1023524
13:00+28wsw33566 0.9 10231530
16:00+29w33480 1.0 10221845
19:00+27wnw24660 0.0 1021136
22:00+22wnw11764 0.0 102211
22 june, tue
tue2201:00+21w12791 0.0 102211
04:00+19wsw22812 0.0 102212
07:00+23w12731 0.0 1023144
10:00+27w33625 0.0 1023656
13:00+30w334914 0.0 10231684
16:00+30w334710 0.0 10221852
19:00+28w346435 0.0 1021136
22:00+23wnw22725 0.0 102211
23 june, wed
wed2301:00+21wnw22770 0.0 102111
04:00+20wnw22810 0.0 102211
07:00+24w22720 0.0 1022148
10:00+28wnw34590 0.0 1021706
13:00+30nw44452 0.0 10212208
16:00+31wnw44420 0.0 10202233
19:00+28wnw35620 0.0 1019161
22:00+24w226915 0.0 101917
24 june, thu
thu2401:00+22nw22758 0.0 101929
04:00+20wnw228113 0.0 101918
07:00+23wnw357935 0.2 1019184
10:00+28nw34624 0.2 1018717
13:00+31nw45445 0.0 10181828
16:00+32nnw57432 0.0 10172344
19:00+29nnw47620 0.0 1016268
22:00+24nnw37778 0.1 1016128